| time (UTC) | temp C | wind direction | speed KPH | gust KPH | rain 1hr cm | rain 24hr cm | rain mn cm | humidity % | barometer mb |
| 20260831183231 | 25 | 212 | 22.5 | 32.2 | 0.00 | 0.00 | 0.00 | 39 | 1017.2 |
| 20260831182237 | 25 | 229 | 11.3 | 32.2 | 0.00 | 0.00 | 0.00 | 36 | 1017.3 |
| 20260831180746 | 25 | 214 | 19.3 | 29.0 | 0.00 | 0.00 | 0.00 | 36 | 1017.1 |
| 20260831180249 | 26 | 211 | 17.7 | 25.7 | 0.00 | 0.00 | 0.00 | 35 | 1017.0 |
| 20260831175752 | 25 | 273 | 16.1 | 29.0 | 0.00 | 0.00 | 0.00 | 34 | 1017.1 |
| 20260831175255 | 25 | 250 | 12.9 | 29.0 | 0.00 | 0.00 | 0.00 | 34 | 1017.2 |
| 20260831174758 | 25 | 276 | 14.5 | 30.6 | 0.00 | 0.00 | 0.00 | 33 | 1017.1 |
| 20260831174301 | 25 | 269 | 17.7 | 30.6 | 0.00 | 0.00 | 0.00 | 34 | 1017.1 |
| 20260831173804 | 25 | 219 | 17.7 | 29.0 | 0.00 | 0.00 | 0.00 | 33 | 1016.2 |
| 20260831173307 | 25 | 246 | 9.7 | 25.7 | 0.00 | 0.00 | 0.00 | 34 | 1016.2 |
| 20260831172810 | 25 | 222 | 17.7 | 32.2 | 0.00 | 0.00 | 0.00 | 36 | 1016.3 |
| 20260831172313 | 25 | 237 | 9.7 | 32.2 | 0.00 | 0.00 | 0.00 | 33 | 1016.3 |
| 20260831171816 | 25 | 222 | 19.3 | 32.2 | 0.00 | 0.00 | 0.00 | 31 | 1016.2 |
| 20260831170325 | 24 | 259 | 14.5 | 25.7 | 0.00 | 0.00 | 0.00 | 30 | 1015.9 |
| 20260831165828 | 24 | 236 | 9.7 | 30.6 | 0.00 | 0.00 | 0.00 | 29 | 1015.9 |
| 20260831164834 | 24 | 265 | 17.7 | 27.4 | 0.00 | 0.00 | 0.00 | 27 | 1015.8 |
| 20260831164337 | 24 | 267 | 11.3 | 25.7 | 0.00 | 0.00 | 0.00 | 26 | 1015.8 |
| 20260831163840 | 23 | 266 | 16.1 | 25.7 | 0.00 | 0.00 | 0.00 | 26 | 1015.8 |
| 20260831163343 | 23 | 267 | 11.3 | 32.2 | 0.00 | 0.00 | 0.00 | 26 | 1015.9 |
| 20260831155904 | 23 | 256 | 12.9 | 27.4 | 0.00 | 0.00 | 0.00 | 23 | 1015.6 |
| 20260831155407 | 22 | 259 | 17.7 | 29.0 | 0.00 | 0.00 | 0.00 | 22 | 1015.4 |
| 20260831154413 | 22 | 270 | 20.9 | 32.2 | 0.00 | 0.00 | 0.00 | 23 | 1015.5 |
| 20260831153419 | 21 | 270 | 22.5 | 33.8 | 0.00 | 0.00 | 0.00 | 23 | 1015.4 |
| 20260831145940 | 20 | 260 | 22.5 | 35.4 | 0.00 | 0.00 | 0.00 | 25 | 1015.0 |
| 20260831145443 | 20 | 260 | 22.5 | 35.4 | 0.00 | 0.00 | 0.00 | 25 | 1014.9 |
| 20260831144449 | 20 | 259 | 24.1 | 35.4 | 0.00 | 0.00 | 0.00 | 25 | 1014.9 |
| 20260831143952 | 20 | 256 | 24.1 | 35.4 | 0.00 | 0.00 | 0.00 | 25 | 1014.9 |
| 20260831142958 | 19 | 256 | 24.1 | 33.8 | 0.00 | 0.00 | 0.00 | 26 | 1014.7 |
| 20260831142501 | 19 | 250 | 25.7 | 35.4 | 0.00 | 0.00 | 0.00 | 26 | 1014.7 |
| 20260831141011 | 18 | 254 | 20.9 | 33.8 | 0.00 | 0.00 | 0.00 | 28 | 1014.5 |
| 20260831140513 | 18 | 253 | 22.5 | 33.8 | 0.00 | 0.00 | 0.00 | 28 | 1014.5 |
| 20260831135519 | 18 | 251 | 25.7 | 33.8 | 0.00 | 0.00 | 0.00 | 28 | 1014.1 |
| 20260831134029 | 18 | 250 | 25.7 | 35.4 | 0.00 | 0.00 | 0.00 | 28 | 1014.6 |
| 20260831133532 | 18 | 250 | 22.5 | 33.8 | 0.00 | 0.00 | 0.00 | 28 | 1014.5 |
| 20260831133034 | 18 | 250 | 24.1 | 35.4 | 0.00 | 0.00 | 0.00 | 28 | 1014.5 |
| 20260831132537 | 18 | 252 | 25.7 | 35.4 | 0.00 | 0.00 | 0.00 | 28 | 1014.5 |
| 20260831132041 | 18 | 256 | 25.7 | 35.4 | 0.00 | 0.00 | 0.00 | 28 | 1014.5 |
| 20260831125556 | 18 | 255 | 27.4 | 35.4 | 0.00 | 0.00 | 0.00 | 27 | 1014.2 |
| 20260831125059 | 18 | 256 | 24.1 | 35.4 | 0.00 | 0.00 | 0.00 | 26 | 1014.2 |
| 20260831124105 | 18 | 252 | 25.7 | 38.6 | 0.00 | 0.00 | 0.00 | 26 | 1014.2 |
| 20260831123607 | 18 | 259 | 29.0 | 38.6 | 0.00 | 0.00 | 0.00 | 26 | 1014.2 |
| 20260831123111 | 18 | 254 | 27.4 | 38.6 | 0.00 | 0.00 | 0.00 | 26 | 1014.2 |
| 20260831122613 | 18 | 251 | 27.4 | 38.6 | 0.00 | 0.00 | 0.00 | 27 | 1014.0 |
| 20260831121619 | 18 | 253 | 27.4 | 38.6 | 0.00 | 0.00 | 0.00 | 26 | 1014.1 |
| 20260831120625 | 18 | 252 | 29.0 | 40.2 | 0.00 | 0.00 | 0.00 | 26 | 1013.9 |
| 20260831120129 | 18 | 253 | 27.4 | 40.2 | 0.00 | 0.00 | 0.00 | 26 | 1013.9 |
| 20260831115135 | 18 | 258 | 29.0 | 38.6 | 0.00 | 0.00 | 0.00 | 26 | 1014.0 |
| 20260831114638 | 18 | 256 | 25.7 | 38.6 | 0.00 | 0.00 | 0.00 | 26 | 1014.0 |
| 20260831113644 | 18 | 253 | 25.7 | 38.6 | 0.00 | 0.00 | 0.00 | 27 | 1014.0 |
| 20260831112649 | 18 | 261 | 22.5 | 37.0 | 0.00 | 0.00 | 0.00 | 27 | 1014.0 |
| 20260831112153 | 18 | 257 | 25.7 | 37.0 | 0.00 | 0.00 | 0.00 | 27 | 1014.0 |
| 20260831105708 | 18 | 256 | 30.6 | 38.6 | 0.00 | 0.00 | 0.00 | 27 | 1013.8 |
| 20260831104217 | 18 | 255 | 27.4 | 40.2 | 0.00 | 0.00 | 0.00 | 28 | 1014.0 |
| 20260831103720 | 18 | 258 | 24.1 | 38.6 | 0.00 | 0.00 | 0.00 | 29 | 1013.9 |
| 20260831102229 | 18 | 256 | 24.1 | 41.8 | 0.00 | 0.00 | 0.00 | 31 | 1014.0 |
| 20260831101235 | 18 | 257 | 27.4 | 37.0 | 0.00 | 0.00 | 0.00 | 33 | 1014.1 |
| 20260831100738 | 18 | 249 | 27.4 | 37.0 | 0.00 | 0.00 | 0.00 | 34 | 1014.0 |
| 20260831095744 | 18 | 248 | 25.7 | 38.6 | 0.00 | 0.00 | 0.00 | 35 | 1014.0 |
| 20260831095247 | 18 | 257 | 27.4 | 38.6 | 0.00 | 0.00 | 0.00 | 35 | 1014.0 |
| 20260831094750 | 18 | 258 | 25.7 | 38.6 | 0.00 | 0.00 | 0.00 | 36 | 1014.2 |
| 20260831094253 | 18 | 253 | 24.1 | 35.4 | 0.00 | 0.00 | 0.00 | 36 | 1014.2 |
| 20260831093259 | 18 | 256 | 24.1 | 37.0 | 0.00 | 0.00 | 0.00 | 36 | 1014.1 |
| 20260831092802 | 19 | 257 | 24.1 | 38.6 | 0.00 | 0.00 | 0.00 | 36 | 1014.1 |
| 20260831092306 | 19 | 258 | 20.9 | 41.8 | 0.00 | 0.00 | 0.00 | 36 | 1014.2 |
| 20260831091808 | 19 | 259 | 25.7 | 41.8 | 0.00 | 0.00 | 0.00 | 36 | 1014.2 |
| 20260831091311 | 19 | 258 | 24.1 | 33.8 | 0.00 | 0.00 | 0.00 | 35 | 1014.2 |
| 20260831090317 | 19 | 246 | 22.5 | 38.6 | 0.00 | 0.00 | 0.00 | 35 | 1014.3 |
| 20260831085323 | 19 | 254 | 22.5 | 35.4 | 0.00 | 0.00 | 0.00 | 36 | 1014.3 |
| 20260831084329 | 19 | 247 | 25.7 | 38.6 | 0.00 | 0.00 | 0.00 | 36 | 1014.4 |
| 20260831083832 | 19 | 252 | 29.0 | 38.6 | 0.00 | 0.00 | 0.00 | 37 | 1014.5 |
| 20260831083335 | 19 | 253 | 24.1 | 37.0 | 0.00 | 0.00 | 0.00 | 39 | 1014.4 |
| 20260831082341 | 19 | 253 | 27.4 | 38.6 | 0.00 | 0.00 | 0.00 | 39 | 1014.4 |
| 20260831081844 | 20 | 252 | 29.0 | 38.6 | 0.00 | 0.00 | 0.00 | 39 | 1014.6 |
| 20260831081347 | 20 | 245 | 27.4 | 35.4 | 0.00 | 0.00 | 0.00 | 40 | 1014.7 |
| 20260831080850 | 20 | 246 | 24.1 | 38.6 | 0.00 | 0.00 | 0.00 | 38 | 1014.7 |
| 20260831075856 | 20 | 245 | 22.5 | 37.0 | 0.00 | 0.00 | 0.00 | 40 | 1014.8 |
| 20260831074902 | 19 | 242 | 27.4 | 37.0 | 0.00 | 0.00 | 0.00 | 41 | 1014.8 |
| 20260831074405 | 19 | 254 | 27.4 | 37.0 | 0.00 | 0.00 | 0.00 | 41 | 1014.9 |
| 20260831073908 | 19 | 249 | 25.7 | 37.0 | 0.00 | 0.00 | 0.00 | 43 | 1014.8 |
| 20260831072914 | 19 | 246 | 25.7 | 35.4 | 0.00 | 0.00 | 0.00 | 42 | 1014.8 |
| 20260831072417 | 20 | 241 | 22.5 | 33.8 | 0.00 | 0.00 | 0.00 | 41 | 1014.8 |
| 20260831071920 | 20 | 245 | 20.9 | 32.2 | 0.00 | 0.00 | 0.00 | 41 | 1014.7 |
| 20260831071423 | 20 | 248 | 24.1 | 32.2 | 0.00 | 0.00 | 0.00 | 42 | 1014.8 |
| 20260831070926 | 20 | 245 | 24.1 | 33.8 | 0.00 | 0.00 | 0.00 | 42 | 1014.8 |
| 20260831065932 | 20 | 252 | 22.5 | 32.2 | 0.00 | 0.00 | 0.00 | 41 | 1014.8 |
| 20260831063944 | 20 | 256 | 12.9 | 27.4 | 0.00 | 0.00 | 0.00 | 40 | 1014.9 |
| 20260831063447 | 20 | 254 | 16.1 | 29.0 | 0.00 | 0.00 | 0.00 | 39 | 1014.8 |
| 20260831062950 | 20 | 246 | 17.7 | 32.2 | 0.00 | 0.00 | 0.00 | 38 | 1014.8 |
| 20260831062453 | 20 | 248 | 22.5 | 32.2 | 0.00 | 0.00 | 0.00 | 38 | 1014.9 |
| 20260831061956 | 20 | 254 | 17.7 | 30.6 | 0.00 | 0.00 | 0.00 | 38 | 1014.6 |
| 20260831061459 | 20 | 250 | 19.3 | 33.8 | 0.00 | 0.00 | 0.00 | 38 | 1014.7 |
| 20260831061002 | 20 | 255 | 22.5 | 33.8 | 0.00 | 0.00 | 0.00 | 37 | 1014.7 |
| 20260831055014 | 20 | 262 | 16.1 | 27.4 | 0.00 | 0.00 | 0.00 | 33 | 1014.6 |
| 20260831054517 | 20 | 263 | 19.3 | 27.4 | 0.00 | 0.00 | 0.00 | 34 | 1014.6 |
| 20260831053523 | 20 | 258 | 16.1 | 30.6 | 0.00 | 0.00 | 0.00 | 38 | 1014.6 |
| 20260831053026 | 20 | 257 | 20.9 | 30.6 | 0.00 | 0.00 | 0.00 | 38 | 1014.6 |
| 20260831051535 | 20 | 255 | 19.3 | 33.8 | 0.00 | 0.00 | 0.00 | 41 | 1015.3 |
| 20260831051038 | 20 | 259 | 22.5 | 33.8 | 0.00 | 0.00 | 0.00 | 41 | 1015.3 |
| 20260831050541 | 20 | 255 | 19.3 | 32.2 | 0.00 | 0.00 | 0.00 | 43 | 1015.2 |
| 20260831044553 | 20 | 254 | 22.5 | 30.6 | 0.00 | 0.00 | 0.00 | 47 | 1015.3 |
| 20260831044056 | 20 | 254 | 20.9 | 30.6 | 0.00 | 0.00 | 0.00 | 49 | 1015.4 |
| 20260831042108 | 20 | 249 | 20.9 | 32.2 | 0.00 | 0.00 | 0.00 | 57 | 1015.2 |
| 20260831041611 | 20 | 251 | 17.7 | 32.2 | 0.00 | 0.00 | 0.00 | 58 | 1015.2 |
| 20260831041114 | 20 | 259 | 22.5 | 32.2 | 0.00 | 0.00 | 0.00 | 59 | 1015.2 |
| 20260831040617 | 19 | 258 | 19.3 | 30.6 | 0.00 | 0.00 | 0.00 | 59 | 1015.1 |
| 20260831033635 | 20 | 258 | 19.3 | 33.8 | 0.00 | 0.00 | 0.00 | 64 | 1014.8 |
| 20260831032641 | 20 | 257 | 22.5 | 32.2 | 0.00 | 0.00 | 0.00 | 63 | 1014.5 |
| 20260831032144 | 19 | 248 | 20.9 | 32.2 | 0.00 | 0.00 | 0.00 | 65 | 1014.6 |
| 20260831031647 | 19 | 255 | 20.9 | 29.0 | 0.00 | 0.00 | 0.00 | 66 | 1014.5 |
| 20260831030653 | 20 | 247 | 22.5 | 30.6 | 0.00 | 0.00 | 0.00 | 67 | 1014.5 |
| 20260831030156 | 20 | 254 | 20.9 | 37.0 | 0.00 | 0.00 | 0.00 | 67 | 1014.5 |
| 20260831025659 | 20 | 249 | 22.5 | 37.0 | 0.00 | 0.00 | 0.00 | 67 | 1014.5 |
| 20260831024208 | 20 | 256 | 24.1 | 33.8 | 0.00 | 0.00 | 0.00 | 66 | 1014.5 |
| 20260831023711 | 20 | 255 | 20.9 | 32.2 | 0.00 | 0.00 | 0.00 | 65 | 1014.5 |
| 20260831023214 | 20 | 260 | 22.5 | 30.6 | 0.00 | 0.00 | 0.00 | 64 | 1014.5 |
| 20260831022717 | 20 | 267 | 24.1 | 32.2 | 0.00 | 0.00 | 0.00 | 63 | 1014.4 |
| 20260831022220 | 21 | 265 | 22.5 | 35.4 | 0.00 | 0.00 | 0.00 | 62 | 1014.5 |
| 20260831021723 | 21 | 266 | 24.1 | 35.4 | 0.00 | 0.00 | 0.00 | 61 | 1014.4 |
| 20260831020232 | 22 | 258 | 25.7 | 35.4 | 0.00 | 0.00 | 0.00 | 56 | 1014.2 |
| 20260831015735 | 22 | 256 | 19.3 | 40.2 | 0.00 | 0.00 | 0.00 | 54 | 1014.2 |
| 20260831015238 | 22 | 267 | 17.7 | 40.2 | 0.00 | 0.00 | 0.00 | 53 | 1014.1 |
| 20260831014741 | 22 | 256 | 30.6 | 40.2 | 0.00 | 0.00 | 0.00 | 51 | 1014.1 |
| 20260831014244 | 22 | 259 | 30.6 | 40.2 | 0.00 | 0.00 | 0.00 | 50 | 1014.1 |
| 20260831013747 | 23 | 257 | 30.6 | 40.2 | 0.00 | 0.00 | 0.00 | 48 | 1014.0 |
| 20260831013250 | 23 | 259 | 27.4 | 40.2 | 0.00 | 0.00 | 0.00 | 47 | 1014.1 |
| 20260831012753 | 23 | 262 | 30.6 | 43.5 | 0.00 | 0.00 | 0.00 | 46 | 1014.1 |
| 20260831012256 | 23 | 263 | 30.6 | 43.5 | 0.00 | 0.00 | 0.00 | 44 | 1014.1 |
| 20260831011759 | 23 | 256 | 30.6 | 43.5 | 0.00 | 0.00 | 0.00 | 44 | 1014.1 |
| 20260831011302 | 24 | 259 | 29.0 | 43.5 | 0.00 | 0.00 | 0.00 | 44 | 1014.0 |
| 20260831010805 | 24 | 257 | 27.4 | 41.8 | 0.00 | 0.00 | 0.00 | 42 | 1014.0 |
| 20260831010308 | 25 | 260 | 30.6 | 40.2 | 0.00 | 0.00 | 0.00 | 40 | 1014.1 |
| 20260831005811 | 25 | 271 | 24.1 | 35.4 | 0.00 | 0.00 | 0.00 | 40 | 1014.2 |
| 20260831004817 | 25 | 266 | 24.1 | 40.2 | 0.00 | 0.00 | 0.00 | 39 | 1014.2 |
| 20260831004320 | 26 | 281 | 27.4 | 40.2 | 0.00 | 0.00 | 0.00 | 38 | 1014.3 |
| 20260831003823 | 26 | 267 | 17.7 | 33.8 | 0.00 | 0.00 | 0.00 | 38 | 1014.2 |
| 20260831003326 | 26 | 281 | 14.5 | 40.2 | 0.00 | 0.00 | 0.00 | 39 | 1014.2 |
| 20260831002829 | 26 | 272 | 22.5 | 40.2 | 0.00 | 0.00 | 0.00 | 38 | 1014.3 |
| 20260831002332 | 26 | 267 | 24.1 | 35.4 | 0.00 | 0.00 | 0.00 | 36 | 1014.4 |
| 20260831001835 | 26 | 266 | 20.9 | 35.4 | 0.00 | 0.00 | 0.00 | 36 | 1014.5 |
| 20260831001338 | 26 | 255 | 17.7 | 37.0 | 0.00 | 0.00 | 0.00 | 35 | 1014.6 |
| 20260831000841 | 26 | 258 | 27.4 | 38.6 | 0.00 | 0.00 | 0.00 | 33 | 1014.3 |
| 20260831000344 | 26 | 267 | 20.9 | 38.6 | 0.00 | 0.00 | 0.00 | 33 | 1014.4 |
| 20260830235847 | 26 | 261 | 27.4 | 38.6 | 0.00 | 0.00 | 0.00 | 32 | 1014.5 |
| 20260830235350 | 27 | 257 | 19.3 | 38.6 | 0.00 | 0.00 | 0.00 | 32 | 1014.6 |
| 20260830234853 | 27 | 264 | 25.7 | 38.6 | 0.00 | 0.00 | 0.00 | 31 | 1014.6 |
| 20260830234356 | 27 | 262 | 22.5 | 37.0 | 0.00 | 0.00 | 0.00 | 32 | 1014.7 |
| 20260830233859 | 27 | 255 | 20.9 | 37.0 | 0.00 | 0.00 | 0.00 | 31 | 1014.8 |
| 20260830233402 | 27 | 244 | 22.5 | 37.0 | 0.00 | 0.00 | 0.00 | 30 | 1014.7 |
| 20260830232408 | 27 | 261 | 17.7 | 38.6 | 0.00 | 0.00 | 0.00 | 31 | 1014.7 |
| 20260830231911 | 27 | 277 | 27.4 | 37.0 | 0.00 | 0.00 | 0.00 | 32 | 1014.5 |
| 20260830231414 | 27 | 271 | 25.7 | 38.6 | 0.00 | 0.00 | 0.00 | 31 | 1014.6 |
| 20260830230917 | 27 | 257 | 25.7 | 40.2 | 0.00 | 0.00 | 0.00 | 31 | 1014.7 |
| 20260830225923 | 28 | 241 | 24.1 | 38.6 | 0.00 | 0.00 | 0.00 | 32 | 1014.9 |
| 20260830225426 | 28 | 265 | 20.9 | 38.6 | 0.00 | 0.00 | 0.00 | 32 | 1015.0 |
| 20260830224929 | 28 | 269 | 20.9 | 35.4 | 0.00 | 0.00 | 0.00 | 31 | 1014.9 |
| 20260830222941 | 28 | 293 | 17.7 | 35.4 | 0.00 | 0.00 | 0.00 | 32 | 1015.2 |
| 20260830222444 | 28 | 255 | 20.9 | 33.8 | 0.00 | 0.00 | 0.00 | 32 | 1015.2 |
| 20260830221947 | 28 | 259 | 20.9 | 33.8 | 0.00 | 0.00 | 0.00 | 32 | 1015.1 |
| 20260830221450 | 28 | 252 | 20.9 | 33.8 | 0.00 | 0.00 | 0.00 | 32 | 1015.1 |
| 20260830220953 | 28 | 292 | 20.9 | 38.6 | 0.00 | 0.00 | 0.00 | 32 | 1015.1 |
| 20260830220456 | 29 | 245 | 19.3 | 38.6 | 0.00 | 0.00 | 0.00 | 33 | 1015.2 |
| 20260830215959 | 30 | 284 | 20.9 | 32.2 | 0.00 | 0.00 | 0.00 | 32 | 1015.2 |
| 20260830215502 | 29 | 268 | 9.7 | 29.0 | 0.00 | 0.00 | 0.00 | 33 | 1015.2 |
| 20260830214508 | 28 | 245 | 22.5 | 37.0 | 0.00 | 0.00 | 0.00 | 34 | 1015.3 |
| 20260830214011 | 28 | 292 | 19.3 | 35.4 | 0.00 | 0.00 | 0.00 | 34 | 1015.4 |
| 20260830213017 | 29 | 255 | 16.1 | 32.2 | 0.00 | 0.00 | 0.00 | 34 | 1015.5 |
| 20260830212023 | 29 | 288 | 24.1 | 38.6 | 0.00 | 0.00 | 0.00 | 34 | 1015.6 |
| 20260830211526 | 29 | 260 | 12.9 | 29.0 | 0.00 | 0.00 | 0.00 | 35 | 1015.6 |
| 20260830210532 | 29 | 289 | 19.3 | 41.8 | 0.00 | 0.00 | 0.00 | 34 | 1015.7 |
| 20260830205538 | 30 | 288 | 17.7 | 30.6 | 0.00 | 0.00 | 0.00 | 34 | 1015.8 |
| 20260830204544 | 29 | 273 | 14.5 | 33.8 | 0.00 | 0.00 | 0.00 | 34 | 1015.8 |
| 20260830204047 | 29 | 226 | 19.3 | 33.8 | 0.00 | 0.00 | 0.00 | 34 | 1015.9 |
| 20260830202556 | 29 | 218 | 19.3 | 32.2 | 0.00 | 0.00 | 0.00 | 33 | 1016.0 |
| 20260830202059 | 29 | 224 | 22.5 | 32.2 | 0.00 | 0.00 | 0.00 | 35 | 1016.0 |
| 20260830201602 | 29 | 239 | 16.1 | 30.6 | 0.00 | 0.00 | 0.00 | 36 | 1016.2 |
| 20260830201105 | 29 | 236 | 17.7 | 32.2 | 0.00 | 0.00 | 0.00 | 36 | 1016.1 |
| 20260830200111 | 29 | 238 | 16.1 | 32.2 | 0.00 | 0.00 | 0.00 | 35 | 1016.1 |
| 20260830195614 | 29 | 236 | 19.3 | 32.2 | 0.00 | 0.00 | 0.00 | 35 | 1016.0 |
| 20260830194620 | 29 | 221 | 19.3 | 29.0 | 0.00 | 0.00 | 0.00 | 34 | 1016.2 |
| 20260830194123 | 30 | 238 | 16.1 | 30.6 | 0.00 | 0.00 | 0.00 | 33 | 1016.1 |
| 20260830193129 | 30 | 212 | 16.1 | 25.7 | 0.00 | 0.00 | 0.00 | 33 | 1016.3 |
| 20260830192135 | 29 | 203 | 11.3 | 32.2 | 0.00 | 0.00 | 0.00 | 33 | 1016.2 |
| 20260830190644 | 29 | 229 | 19.3 | 32.2 | 0.00 | 0.00 | 0.00 | 32 | 1016.4 |
| 20260830185650 | 28 | 276 | 14.5 | 25.7 | 0.00 | 0.00 | 0.00 | 33 | 1016.5 |
| 20260830185153 | 28 | 248 | 16.1 | 25.7 | 0.00 | 0.00 | 0.00 | 33 | 1016.6 |